DW8873 Weather Reports


time (UTC)temp
C
wind
direction
speed
KPH
gust
KPH
rain 1hr
cm
rain 24hr
cm
rain mn
cm
humidity
%
barometer
mb
20190421181529 17 360 0.0 0.0 0.00 0.00 0.00 94 1020.4
20190421180528 17 360 0.0 0.0 0.00 0.00 0.00 94 1020.1
20190421175526 17 360 0.0 0.0 0.00 0.00 0.00 94 1020.1
20190421174524 17 360 0.0 0.0 0.00 0.00 0.00 94 1020.1
20190421173523 17 360 0.0 0.0 0.00 0.00 0.00 94 1020.1
20190421172522 17 360 0.0 0.0 0.00 0.00 0.00 94 1020.4
20190421164515 18 360 0.0 0.0 0.00 0.00 0.00 93 1020.8
20190421163514 18 360 0.0 0.0 0.00 0.00 0.00 93 1020.8
20190421152503 18 360 0.0 0.0 0.00 0.03 0.00 90 1021.1
20190421151501 19 360 0.0 0.0 0.00 0.03 0.00 90 1021.1
20190421144457 19 360 0.0 0.0 0.00 0.03 0.00 88 1021.5
20190421142454 20 360 0.0 0.0 0.00 0.03 0.00 86 1021.1
20190421135450 20 355 0.0 1.6 0.00 0.03 0.00 85 1021.1
20190421134448 20 355 0.0 1.6 0.00 0.03 0.03 85 1021.1
20190421133446 20 10 0.0 9.7 0.00 0.03 0.03 85 1020.8
20190421131443 20 14 12.9 20.9 0.00 0.03 0.03 85 1021.2
20190421124440 20 45 3.2 8.0 0.00 0.03 0.03 87 1021.2
20190421123438 20 355 0.0 0.0 0.00 0.03 0.03 87 1021.1
20190421122437 20 360 0.0 0.0 0.00 0.03 0.03 87 1021.5
20190421121435 20 355 0.0 0.0 0.00 0.03 0.03 87 1021.5
20190421113429 20 5 0.0 9.7 0.00 0.03 0.03 88 1021.5
20190421112428 20 346 0.0 11.3 0.00 0.03 0.03 88 1021.5
20190421110424 20 0 6.4 6.4 0.00 0.03 0.03 88 1021.5
20190421105423 20 5 0.0 0.0 0.00 0.03 0.03 88 1021.5
20190421103420 20 355 0.0 0.0 0.00 0.03 0.03 87 1021.5
20190421102419 21 355 0.0 0.0 0.00 0.03 0.03 87 1021.5
20190421101417 21 355 0.0 1.6 0.00 0.03 0.03 86 1021.4
20190421100415 21 348 0.0 1.6 0.00 0.03 0.03 86 1021.4
20190421095413 21 348 0.0 0.0 0.00 0.03 0.03 85 1021.4
20190421094411 21 360 0.0 1.6 0.00 0.03 0.03 84 1021.4
20190421093410 21 47 0.0 6.4 0.00 0.03 0.03 83 1021.1
20190421092408 21 11 3.2 6.4 0.00 0.03 0.03 82 1021.1
20190421085406 21 12 0.0 8.0 0.00 0.03 0.03 80 1021.1
20190421083400 21 22 0.0 1.6 0.00 0.03 0.03 78 1021.4
20190421081357 21 57 6.4 11.3 0.00 0.03 0.03 78 1021.1
20190421080356 21 17 0.0 1.6 0.00 0.03 0.03 78 1021.1
20190421075354 21 28 0.0 0.0 0.00 0.03 0.03 78 1021.4
20190421074352 22 360 0.0 3.2 0.00 0.03 0.03 77 1021.4
20190421072349 22 5 3.2 17.7 0.00 0.03 0.03 77 1021.4
20190421071347 22 53 3.2 20.9 0.00 0.03 0.03 77 1021.1
20190421070346 22 12 1.6 8.0 0.00 0.03 0.03 77 1021.1
20190421062341 22 50 4.8 11.3 0.00 0.03 0.03 78 1020.8
20190421061339 22 25 3.2 16.1 0.00 0.03 0.03 78 1020.8
20190421060337 22 34 0.0 19.3 0.00 0.03 0.03 76 1020.8
20190421054334 22 47 1.6 20.9 0.00 0.03 0.03 74 1020.4
20190421053333 23 62 9.7 20.9 0.00 0.03 0.03 72 1020.8
20190421051329 23 55 0.0 22.5 0.00 0.03 0.03 72 1020.8
20190421050328 23 37 9.7 16.1 0.00 0.03 0.03 72 1020.8
20190421045326 23 42 0.0 16.1 0.00 0.03 0.03 72 1020.8
20190421044325 23 69 0.0 12.9 0.00 0.03 0.03 71 1020.8
20190421043323 23 44 3.2 19.3 0.00 0.03 0.03 72 1020.8
20190421042322 23 70 6.4 19.3 0.00 0.03 0.03 71 1020.8
20190421035316 23 11 0.0 16.1 0.00 0.03 0.03 71 1021.1
20190421034315 24 59 1.6 17.7 0.00 0.03 0.03 71 1021.1
20190421033313 23 82 6.4 17.7 0.00 0.03 0.03 71 1021.1
20190421030308 24 62 4.8 16.1 0.00 0.03 0.03 68 1021.1
20190421024305 25 44 0.0 22.5 0.00 0.03 0.03 67 1021.5
20190421023304 25 61 3.2 16.1 0.00 0.03 0.03 67 1021.5
20190421022302 25 32 0.0 12.9 0.00 0.03 0.03 65 1021.8
20190421020300 25 78 0.0 12.9 0.00 0.03 0.03 61 1022.1
20190421013256 26 55 0.0 0.0 0.00 0.03 0.03 59 1022.8
20190421011747 25 5 0.0 1.6 0.00 0.03 0.03 62 1023.2
20190421010714 26 240 1.6 1.6 0.00 0.03 0.03 61 1023.2
20190421004333 24 355 0.0 8.0 0.00 0.03 0.03 67 1023.2
20190421003300 24 350 0.0 4.8 0.00 0.03 0.03 67 1023.2
20190421002023 23 24 0.0 20.9 0.00 0.03 0.03 68 1023.2
20190421001022 23 344 20.9 20.9 0.00 0.03 0.03 68 1023.5
20190420235949 24 15 0.0 3.2 0.00 0.03 0.03 71 1023.5
20190420234814 23 259 0.0 3.2 0.00 0.03 0.03 76 1023.8
20190420233800 24 13 0.0 4.8 0.00 0.03 0.03 73 1023.8
20190420232643 23 360 0.0 0.0 0.00 0.03 0.03 77 1023.5
20190420231527 23 63 0.0 0.0 0.00 0.03 0.03 80 1023.8
20190420230522 22 130 0.0 0.0 0.00 0.03 0.03 83 1023.8
20190420225520 22 16 0.0 0.0 0.00 0.03 0.03 86 1023.8
20190420224447 21 355 0.0 0.0 0.00 0.03 0.03 91 1024.2
20190420222742 20 291 0.0 0.0 0.00 0.03 0.03 97 1024.2
20190420221638 18 285 0.0 0.0 0.00 0.03 0.03 97 1024.1
20190420220504 18 285 0.0 0.0 0.00 0.03 0.03 98 1024.1
20190420215502 17 285 0.0 0.0 0.00 0.03 0.03 98 1024.1
20190420214358 16 285 0.0 0.0 0.00 0.03 0.03 97 1023.8
20190420213254 16 285 0.0 0.0 0.00 0.03 0.03 97 1023.8
20190420212253 16 285 0.0 0.0 0.00 0.03 0.03 97 1023.8
20190420211220 16 285 0.0 0.0 0.00 0.03 0.03 97 1023.4
20190420210045 15 285 0.0 0.0 0.00 0.03 0.03 97 1023.4
20190420205044 15 285 0.0 0.0 0.00 0.03 0.03 97 1023.4
20190420204011 15 285 0.0 0.0 0.00 0.03 0.03 97 1023.4
20190420203009 15 285 0.0 0.0 0.00 0.03 0.03 97 1023.1
20190420201732 15 285 0.0 0.0 0.00 0.03 0.03 96 1023.1
20190420200730 16 285 0.0 0.0 0.00 0.03 0.03 96 1023.1
20190420195729 15 285 0.0 0.0 0.00 0.03 0.03 96 1022.8
20190420194727 15 285 0.0 0.0 0.00 0.03 0.03 96 1022.8
20190420193725 15 285 0.0 0.0 0.00 0.03 0.03 96 1022.8
20190420192724 16 285 0.0 0.0 0.00 0.03 0.03 96 1022.8
20190420190720 16 325 0.0 0.0 0.00 0.03 0.03 96 1022.4
20190420185718 16 271 0.0 0.0 0.00 0.03 0.03 96 1022.8
20190420184717 16 271 0.0 0.0 0.00 0.03 0.03 96 1022.8
20190420183715 16 271 0.0 0.0 0.00 0.03 0.03 96 1022.4